NUSAT-40 (C SHOEMAKER)

导读 | 星芒AI

NUSAT-40(C Shoemaker)是一颗由美国海军研究生院(NPS)设计和建造的教育用途立方体卫星,重约1.3公斤,属于1U立方星。该卫星旨在支持空间通信和遥测研究,搭载了多种实验载荷,包括用于业余无线电通信的转发器。以天文学家Cyril Shoemaker命名,纪念其在近地天体探测方面的贡献。NUSAT-40于2023年发射,运行在低地轨道,主要用于教学、科研及技术验证。

基本信息
目录编号:
56943
目录名称:
NUSAT-40 (C SHOEMAKER)
国际标识:
2023-084M
轨道中心:
EARTH
卫星名称:
NUSAT-40 (C SHOEMAKER)
卫星全名:
--
卫星状态:
在轨 (已飞行917 天)
发射日期:
2023-06-12 UTC
国别 :
阿根廷 (AR)
星等 :
--
轨道信息
数据来源 国际轨道数据
星历时间: 2025-12-15T06:46:39+0800
19小时前
查看轨道信息
半长轴: 6790.499km
偏心率: 0.0004665
轨道倾角: 97.469°
近地点辐角 205.621°
升交点赤经 120.018°
平近点角 154.481°
近地点: 409.196km
远地点: 415.532km
周期: 92.814分钟
每日圈数: 15.514947
详细信息
使用方式:
暂无
2D轨道图
3D轨道图
轨道高度分析图
轨道倾角分析图
轨道综合分析图
查看轨道综合分析图